Wind_Speed
45 46 44 40 37 36 35 34 33 30 26 25 26 27 26 25 26 28 32 32 32 30 30 28 26 23 22 24 24 22 22 22 21 19 19 19 19 18 22 21 17 16 15
46 45 44 42 39 35 33 33 33 33 32 31 29 28 29 26 24 27 29 31 33 32 31 29 26 24 23 24 25 24 24 25 24 21 19 19 20 20 21 21 19 19 18
45 44 44 42 40 36 34 34 34 33 32 31 31 29 30 29 26 26 28 30 32 33 34 31 27 25 25 25 24 24 26 25 24 22 20 19 20 19 20 20 19 18 19
45 46 46 44 42 41 40 39 37 35 32 31 29 28 29 30 28 28 28 28 30 30 31 28 26 24 24 23 21 23 23 23 23 23 21 19 18 18 20 20 21 22 18
48 48 47 46 46 45 45 43 41 37 32 31 30 30 30 31 29 27 28 28 28 27 26 24 24 23 23 22 21 22 22 22 23 24 22 20 18 18 19 19 19 21 21
48 48 47 46 46 46 45 43 41 39 36 34 32 33 32 32 29 25 26 27 28 27 26 25 25 23 22 21 20 22 21 19 21 23 23 22 19 20 18 18 19 19 18
45 45 43 43 42 42 42 40 39 39 38 37 36 35 34 31 31 27 26 26 27 26 25 25 24 23 22 22 22 23 22 17 17 21 25 23 21 20 17 18 20 21 20
37 37 37 37 37 39 40 38 38 39 40 41 41 40 37 34 33 30 27 27 29 29 26 25 23 22 21 22 22 24 25 21 21 21 20 22 21 22 20 18 19 20 20
31 32 35 37 37 38 39 37 36 37 38 40 41 40 37 39 34 30 28 28 28 28 29 27 25 22 20 21 22 24 26 22 20 19 21 22 20 22 21 19 18 20 22
32 32 32 34 34 35 35 37 38 35 34 33 32 33 39 42 38 33 29 27 26 24 26 27 27 25 22 20 22 21 25 18 16 18 20 21 20 22 23 21 19 19 20
29 29 29 29 28 27 27 30 30 28 28 30 31 35 39 41 37 31 28 27 26 25 25 25 24 24 23 22 23 22 25 21 16 15 16 19 21 24 26 24 20 19 18
31 31 29 28 27 24 27 32 28 27 22 25 32 39 43 36 29 27 27 27 28 28 25 24 22 22 22 22 22 24 23 23 22 22 21 16 15 20 26 26 22 19 19
32 33 31 31 32 30 27 26 25 21 18 25 28 24 25 23 23 25 27 29 30 31 28 27 25 23 23 22 22 24 25 25 25 24 23 18 17 18 22 26 24 21 21
33 35 34 34 36 34 29 26 28 22 22 25 23 20 21 23 24 25 24 25 25 24 25 26 25 23 23 25 25 25 26 27 25 23 22 22 23 22 21 24 27 27 25
32 35 37 37 35 31 30 30 28 28 27 28 25 24 24 24 24 24 23 23 23 21 22 22 21 19 22 25 27 27 28 29 28 26 25 22 24 22 23 25 28 32 30
36 39 39 33 34 33 31 33 35 35 34 32 30 28 27 26 25 25 25 26 25 24 22 21 21 21 21 25 28 29 29 29 30 30 29 28 29 27 25 23 26 30 34
36 38 40 36 34 36 36 35 36 37 35 35 33 32 32 29 27 28 28 28 28 27 26 26 26 25 24 25 28 30 31 32 32 31 31 30 30 28 24 22 22 27 34
36 34 34 41 43 43 42 39 39 37 37 36 34 34 34 34 33 32 33 33 33 32 31 29 28 27 26 27 30 32 32 33 34 34 33 32 31 29 28 27 25 24 35
43 44 41 39 41 44 42 40 38 36 36 36 34 32 33 34 35 35 36 37 36 35 33 32 29 27 26 28 32 36 35 34 34 35 35 34 34 33 32 32 30 27 29
37 40 40 40 42 43 41 37 38 38 37 35 34 33 34 35 36 35 36 36 37 36 35 33 31 30 30 31 33 36 39 39 39 40 40 40 38 36 35 33 31 29 28
27 30 34 41 44 44 43 36 34 34 33 33 33 33 31 32 32 32 32 32 33 34 34 32 32 32 33 34 34 35 37 40 42 43 43 43 44 42 40 39 37 34 34
19 25 31 33 34 37 37 34 29 27 29 31 33 33 32 32 33 33 32 33 33 34 35 34 36 36 37 37 37 37 38 39 41 43 45 46 46 46 44 42 40 40 40
22 16 22 25 27 30 33 30 30 31 30 30 29 29 31 33 34 36 37 37 38 38 38 38 38 39 40 42 41 41 41 41 42 43 44 45 46 47 47 47 45 44 43
18 18 16 15 17 25 27 27 30 34 34 34 33 33 34 35 35 38 40 41 42 42 42 41 41 42 43 44 44 43 43 45 45 44 44 45 46 46 46 48 49 49 49
27 28 28 26 26 28 30 31 33 35 37 39 41 43 42 41 41 43 44 44 45 46 47 46 46 47 46 46 45 44 44 45 45 45 44 44 45 44 44 44 45 46 48
27 32 36 37 37 37 36 34 34 36 37 37 39 41 42 43 43 45 45 45 46 47 48 48 48 49 49 48 47 45 43 43 44 44 43 44 44 45 45 46 45 46 46
Wind_Direction
259 261 262 264 268 271 273 270 271 274 277 275 269 270 270 268 272 276 275 273 270 266 262 264 270 275 275 279 281 280 281 285 286 285 282 278 279 278 275 279 276 273 263
255 260 263 265 269 272 272 272 275 278 275 271 269 268 266 263 266 274 280 279 274 269 268 271 275 275 273 276 276 276 279 282 282 280 277 275 275 275 273 274 272 263 257
254 258 260 264 267 270 272 272 274 274 273 268 262 258 256 255 262 270 275 276 272 271 271 274 277 272 269 270 270 275 282 283 281 276 273 271 271 273 273 272 268 259 246
251 254 258 261 264 268 270 272 274 275 274 268 261 255 253 258 262 267 271 272 271 268 268 270 270 268 265 263 267 277 284 285 281 275 270 268 272 273 273 273 272 274 280
253 255 258 261 264 267 269 270 271 269 267 266 259 255 255 258 262 263 267 270 266 261 260 256 257 259 260 260 267 273 279 283 278 275 271 269 274 278 275 274 276 280 284
256 257 259 261 262 263 265 266 266 263 260 260 259 256 256 257 252 257 260 259 259 258 257 253 253 257 258 262 269 272 275 284 277 272 268 268 271 277 281 281 275 275 276
255 256 257 258 260 262 263 263 261 258 255 254 255 254 253 253 248 253 251 255 259 259 260 260 257 258 260 261 264 268 268 281 279 275 268 257 263 272 277 279 278 276 273
254 253 253 257 260 261 259 257 254 253 252 250 251 252 250 249 252 248 250 261 261 258 259 259 259 259 258 256 256 262 267 272 282 276 259 245 254 264 266 270 273 275 276
247 250 254 256 260 262 258 254 250 251 252 249 246 246 247 245 249 246 254 264 265 261 259 258 260 263 261 254 253 258 268 270 273 268 256 250 253 258 259 261 267 266 271
245 248 252 251 256 258 253 249 248 250 249 246 239 234 230 238 251 245 252 262 264 263 260 259 260 260 259 258 256 256 264 261 263 265 255 252 256 253 251 256 262 263 262
246 247 246 247 250 250 250 254 244 241 242 241 235 233 237 245 246 244 250 256 258 258 257 257 257 260 260 258 256 253 259 266 269 274 264 263 261 251 248 249 253 259 260
243 241 242 244 241 250 256 252 234 225 228 235 241 237 242 242 238 240 245 251 255 256 255 256 256 258 259 259 259 254 254 257 260 261 263 270 267 245 249 248 246 253 255
242 239 239 242 240 251 255 245 224 231 223 245 256 246 237 232 235 242 248 253 254 253 252 255 254 256 259 260 259 258 254 253 258 259 254 258 250 247 252 251 247 245 247
246 244 241 243 244 247 245 234 224 241 253 252 254 252 245 243 245 246 248 250 249 248 249 249 249 251 254 254 257 261 259 257 257 257 257 258 261 251 255 260 253 240 235
254 250 249 248 246 246 244 241 245 248 245 247 249 249 246 244 245 241 236 235 237 240 242 244 245 249 253 250 251 255 258 258 257 254 250 258 257 255 262 269 260 244 229
243 235 237 244 244 247 246 243 244 242 241 242 241 241 242 242 241 239 237 238 241 243 243 245 246 250 253 254 253 252 253 254 255 255 253 252 258 265 270 270 253 244 229
241 237 242 240 239 244 247 247 246 241 238 238 240 244 246 247 245 242 241 241 242 244 245 250 252 251 251 254 255 250 250 252 252 252 254 256 257 264 267 270 258 248 241
243 248 257 254 249 244 243 243 241 238 234 232 239 243 244 244 242 242 243 243 244 246 250 250 251 251 251 252 253 252 251 254 254 253 253 255 256 259 261 262 261 258 238
253 247 249 250 248 246 242 240 240 238 237 238 241 244 245 245 244 244 245 245 247 248 248 250 251 253 256 257 255 254 254 256 258 258 258 258 259 257 256 259 262 255 246
244 238 239 238 240 241 239 238 239 239 241 244 247 245 246 247 247 247 248 248 249 249 249 250 253 256 259 260 259 257 257 260 260 259 260 262 262 261 261 260 260 259 253
219 228 233 237 235 235 235 234 236 240 243 244 246 247 249 252 255 254 252 252 253 255 256 256 258 259 260 260 261 262 260 259 258 258 259 261 263 262 260 259 258 255 254
230 225 221 224 227 229 231 231 230 235 241 244 245 249 252 256 261 264 265 264 262 261 261 262 263 263 262 261 262 262 262 260 259 258 259 259 260 262 261 257 254 253 255
281 259 241 241 238 234 233 235 235 236 241 245 247 250 255 258 260 264 265 266 266 264 263 262 262 262 262 262 261 260 259 259 258 258 259 259 259 260 261 259 256 254 253
256 259 256 255 250 250 248 244 244 245 249 252 253 256 257 259 261 263 263 263 263 263 262 262 261 260 259 259 259 259 259 259 257 256 257 257 257 258 259 261 260 257 255
227 231 230 233 240 247 247 245 246 248 249 251 252 252 253 256 259 261 262 263 263 263 263 262 262 261 259 259 260 259 259 259 258 256 256 256 256 256 257 258 261 261 259
238 234 232 234 240 246 249 250 249 250 250 249 249 251 254 256 258 258 260 262 262 262 262 263 263 263 262 260 259 258 257 256 256 256 257 258 258 258 259 258 259 261 261
Height
5865 5867 5868 5870 5872 5873 5873 5874 5874 5876 5877 5879 5881 5881 5881 5881 5880 5879 5880 5880 5879 5879 5879 5879 5880 5881 5881 5881 5880 5880 5878 5876 5875 5875 5875 5874 5872 5871 5868 5867 5866 5865 5863
5856 5858 5860 5862 5863 5865 5866 5867 5868 5869 5870 5872 5874 5875 5874 5874 5873 5873 5873 5873 5872 5873 5874 5875 5875 5876 5876 5876 5875 5875 5873 5872 5871 5871 5871 5871 5870 5868 5866 5864 5864 5863 5861
5848 5850 5852 5853 5854 5857 5859 5860 5862 5863 5864 5864 5865 5867 5868 5867 5867 5868 5868 5867 5866 5866 5867 5869 5870 5870 5870 5871 5870 5869 5868 5867 5866 5866 5866 5865 5865 5864 5863 5863 5862 5860 5859
5840 5841 5843 5844 5846 5847 5849 5852 5854 5856 5857 5857 5858 5860 5861 5862 5862 5861 5861 5862 5861 5861 5862 5863 5864 5864 5865 5865 5864 5862 5861 5861 5861 5861 5861 5860 5861 5861 5860 5860 5859 5858 5859
5830 5832 5833 5834 5836 5838 5839 5842 5844 5847 5848 5849 5851 5852 5853 5854 5855 5854 5854 5855 5855 5856 5856 5857 5858 5859 5860 5860 5859 5857 5856 5856 5856 5856 5856 5856 5857 5857 5856 5855 5857 5856 5857
5820 5822 5823 5825 5826 5827 5829 5832 5834 5837 5840 5840 5842 5843 5845 5846 5847 5848 5848 5849 5850 5850 5850 5851 5853 5854 5855 5856 5855 5853 5852 5851 5851 5850 5852 5852 5854 5853 5852 5851 5852 5854 5855
5810 5812 5813 5814 5816 5818 5819 5822 5825 5827 5829 5831 5832 5834 5836 5838 5840 5841 5842 5843 5845 5845 5845 5846 5847 5849 5850 5851 5850 5848 5848 5847 5847 5846 5846 5848 5850 5851 5851 5849 5848 5848 5851
5800 5802 5804 5805 5807 5808 5809 5812 5814 5817 5818 5821 5823 5824 5827 5831 5832 5834 5835 5837 5839 5840 5840 5841 5842 5843 5843 5844 5844 5845 5844 5843 5843 5842 5842 5843 5844 5847 5848 5847 5847 5847 5847
5792 5795 5797 5797 5797 5798 5799 5801 5805 5807 5808 5810 5814 5816 5819 5822 5824 5826 5828 5829 5831 5832 5834 5835 5835 5836 5837 5838 5840 5840 5839 5838 5838 5838 5838 5839 5839 5842 5844 5844 5845 5845 5845
5784 5786 5788 5789 5789 5789 5790 5791 5795 5799 5801 5802 5805 5809 5811 5813 5815 5818 5820 5822 5824 5825 5826 5827 5828 5830 5831 5833 5835 5834 5835 5834 5833 5834 5835 5836 5835 5837 5839 5840 5841 5841 5842
5777 5778 5780 5781 5782 5783 5783 5785 5787 5790 5792 5795 5798 5802 5804 5806 5807 5810 5813 5815 5817 5819 5820 5821 5822 5823 5826 5827 5827 5829 5828 5830 5831 5832 5832 5831 5830 5831 5833 5836 5837 5837 5837
5770 5771 5773 5774 5776 5777 5778 5779 5782 5785 5785 5789 5792 5794 5795 5796 5799 5803 5806 5808 5810 5812 5813 5814 5815 5817 5819 5820 5820 5822 5824 5827 5828 5827 5826 5826 5825 5826 5828 5830 5831 5833 5834
5762 5763 5765 5766 5768 5770 5771 5773 5778 5779 5780 5782 5785 5786 5788 5790 5794 5797 5799 5801 5804 5805 5805 5806 5809 5811 5812 5813 5814 5816 5817 5820 5821 5822 5824 5823 5823 5822 5824 5825 5826 5828 5830
5754 5756 5757 5759 5761 5762 5765 5769 5772 5774 5775 5778 5779 5781 5784 5786 5788 5790 5792 5795 5798 5797 5799 5802 5803 5804 5806 5807 5809 5810 5811 5812 5814 5816 5818 5818 5819 5819 5819 5820 5821 5822 5825
5745 5748 5750 5751 5754 5756 5758 5762 5766 5768 5770 5772 5774 5777 5779 5781 5783 5785 5787 5790 5791 5792 5794 5797 5797 5798 5800 5802 5803 5804 5806 5807 5808 5809 5811 5810 5813 5813 5813 5813 5814 5816 5818
5736 5738 5741 5744 5747 5750 5753 5754 5757 5761 5763 5766 5768 5770 5772 5774 5777 5779 5781 5783 5785 5788 5790 5791 5791 5793 5794 5796 5798 5799 5800 5801 5803 5804 5804 5805 5807 5808 5808 5807 5807 5809 5811
5727 5729 5731 5736 5739 5741 5744 5746 5749 5751 5755 5759 5761 5763 5765 5769 5771 5773 5775 5777 5779 5782 5783 5784 5786 5787 5788 5790 5792 5792 5794 5795 5797 5798 5798 5799 5800 5802 5802 5802 5801 5803 5805
5720 5723 5725 5727 5729 5732 5735 5739 5742 5745 5747 5751 5753 5756 5758 5760 5762 5765 5767 5770 5773 5774 5776 5777 5779 5780 5781 5783 5786 5788 5788 5788 5789 5790 5792 5793 5794 5795 5796 5796 5795 5795 5798
5710 5714 5718 5720 5722 5725 5728 5731 5733 5736 5739 5741 5744 5746 5748 5751 5753 5756 5758 5761 5763 5765 5767 5769 5771 5773 5774 5777 5779 5782 5782 5781 5781 5782 5783 5785 5786 5787 5789 5790 5790 5790 5791
5703 5705 5709 5713 5714 5717 5720 5722 5726 5728 5730 5733 5734 5736 5740 5742 5745 5748 5750 5752 5754 5756 5757 5759 5761 5763 5765 5768 5770 5771 5773 5773 5773 5774 5775 5776 5778 5780 5781 5782 5783 5784 5784
5698 5700 5703 5705 5707 5709 5712 5715 5718 5720 5722 5724 5727 5728 5731 5733 5735 5738 5740 5741 5743 5745 5746 5747 5750 5752 5754 5757 5760 5760 5762 5763 5764 5765 5765 5766 5768 5770 5772 5774 5775 5776 5777
5696 5698 5699 5700 5700 5702 5705 5708 5710 5711 5714 5716 5718 5720 5721 5723 5725 5727 5729 5730 5732 5734 5736 5736 5738 5741 5744 5747 5749 5751 5752 5753 5753 5754 5755 5756 5757 5759 5761 5764 5765 5766 5767
5689 5692 5694 5695 5695 5696 5698 5701 5702 5703 5705 5708 5708 5710 5712 5714 5716 5717 5719 5721 5723 5724 5726 5727 5729 5730 5733 5736 5737 5739 5740 5742 5742 5743 5744 5744 5746 5747 5749 5750 5753 5755 5756
5683 5687 5689 5689 5689 5689 5691 5691 5693 5695 5696 5698 5700 5701 5702 5704 5705 5707 5708 5710 5712 5714 5715 5715 5716 5717 5720 5722 5724 5726 5727 5729 5730 5731 5732 5733 5734 5735 5737 5739 5740 5742 5744
5675 5677 5679 5680 5680 5682 5684 5684 5685 5686 5687 5689 5691 5692 5692 5694 5694 5696 5697 5698 5700 5701 5703 5704 5705 5706 5706 5708 5710 5711 5713 5715 5716 5717 5719 5721 5723 5724 5725 5726 5728 5729 5731
5666 5667 5668 5669 5671 5672 5673 5674 5675 5676 5677 5678 5679 5680 5682 5682 5683 5684 5685 5685 5686 5688 5689 5690 5691 5691 5693 5694 5695 5697 5698 5700 5702 5704 5705 5707 5710 5712 5713 5715 5716 5717 5719